User: anonymous   Login
Location: Wildlife_Club
(35.6000°N, 81.4330°W)
Time: 08:32:19
(UTC-04:00)
Language:

deb Explorer IX - Orbit

View from above orbital plane
View from above orbital plane
View from above satellite
View from above satellite

Ground track
Ground track

The orbit data is extracted from the following two-line orbital elements,

1    85U 61004C   19290.09203975 -.00000006  00000-0  19304-4 0  9998
2    85  38.7715 186.7365 0390442 311.4849  45.2990 14.19881935896320
Epoch (UTC): 17 October 2019 02:12:32
Eccentricity: 0.0390442
inclination: 38.7715°
perigee height: 544 km
apogee height: 1107 km
right ascension of ascending node: 186.7365°
argument of perigee: 311.4849°
revolutions per day: 14.19881935
mean anomaly at epoch: 45.2990°
orbit number at epoch: 89632

The dashed part of the orbit path shows where the satellite is in the earth's shadow,  

DLR